Terug naar catalogus

SL-12 DEB

LostUNKNOWN
NORAD 34183·DEBRIS·🇷🇺 Russia

Gelanceerd Jul 30, 1992 vanaf Baikonur Cosmodrome

Loading…

Volgende Passages (komende 24 uur)

TLE

VerouderdSource: Space-Track

Epoch: Sep 3, 2024, 00:42 UTC

1 34183U 92047AT  24247.02984675  .81030526  00000-0  90821+1 0  9996
2 34183  65.8610  94.7941 2146939 143.3410  11.6703 10.88207265646598

Volg SL-12 DEB in realtime met AllMySat

Download on the App Store